When you browse on this site, cookies collect data to enhance your experience and personalize the content and advertising you see.
Visit our Privacy Policy to learn more. By continuing to use the site, you agree to this use of cookies and data.

Hourly Weather Kipungo

Today, 14 July, Tuesday

Time Temperature Precipitation Wind Pressure Humidity
00:00 +12°C° 0 mm 1 mps 653 mmHg 25%
01:00 +11°C° 0 mm 1 mps 652 mmHg 26%
02:00 +10°C° 0 mm 1 mps 652 mmHg 27%
03:00 +8°C° 0 mm 0 mps 651 mmHg 28%
04:00 +7°C° 0 mm 0 mps 651 mmHg 29%
05:00 +7°C° 0 mm 0 mps 651 mmHg 29%
06:00 +7°C° 0 mm 0 mps 652 mmHg 28%
07:00 +7°C° 0 mm 0 mps 652 mmHg 28%
08:00 +13°C° 0 mm 1 mps 653 mmHg 22%
09:00 +18°C° 0 mm 2 mps 654 mmHg 17%
10:00 +24°C° 0 mm 3 mps 655 mmHg 11%
11:00 +26°C° 0 mm 3 mps 655 mmHg 10%
12:00 +29°C° 0 mm 3 mps 655 mmHg 9%
13:00 +31°C° 0 mm 3 mps 655 mmHg 7%
14:00 +31°C° 0 mm 3 mps 654 mmHg 7%
15:00 +31°C° 0 mm 2 mps 654 mmHg 7%
16:00 +31°C° 0 mm 2 mps 653 mmHg 7%
17:00 +27°C° 0 mm 2 mps 653 mmHg 9%
18:00 +24°C° 0 mm 2 mps 653 mmHg 11%
19:00 +20°C° 0 mm 1 mps 652 mmHg 14%
20:00 +18°C° 0 mm 2 mps 652 mmHg 14%
21:00 +16°C° 0 mm 2 mps 653 mmHg 15%
22:00 +15°C° 0 mm 2 mps 653 mmHg 16%
23:00 +14°C° 0 mm 2 mps 653 mmHg 17%

Tomorrow, 15 July, Wednesday

Time Temperature Precipitation Wind Pressure Humidity
00:00 +13°C° 0 mm 1 mps 652 mmHg 18%
01:00 +11°C° 0 mm 1 mps 652 mmHg 19%
02:00 +10°C° 0 mm 1 mps 652 mmHg 21%
03:00 +9°C° 0 mm 1 mps 651 mmHg 22%
04:00 +8°C° 0 mm 1 mps 651 mmHg 24%
05:00 +8°C° 0 mm 1 mps 652 mmHg 25%
06:00 +8°C° 0 mm 1 mps 652 mmHg 26%
07:00 +8°C° 0 mm 1 mps 653 mmHg 27%
08:00 +13°C° 0 mm 2 mps 654 mmHg 22%
09:00 +17°C° 0 mm 3 mps 655 mmHg 17%
10:00 +22°C° 0 mm 4 mps 657 mmHg 12%
11:00 +25°C° 0 mm 4 mps 657 mmHg 11%
12:00 +28°C° 0 mm 4 mps 656 mmHg 9%
13:00 +30°C° 0 mm 5 mps 656 mmHg 8%
14:00 +30°C° 0 mm 4 mps 656 mmHg 8%
15:00 +30°C° 0 mm 4 mps 655 mmHg 8%
16:00 +30°C° 0 mm 4 mps 655 mmHg 8%
17:00 +26°C° 0 mm 3 mps 654 mmHg 11%
18:00 +22°C° 0 mm 3 mps 654 mmHg 13%
19:00 +18°C° 0 mm 2 mps 654 mmHg 16%
20:00 +17°C° 0 mm 2 mps 654 mmHg 17%
21:00 +15°C° 0 mm 2 mps 654 mmHg 19%
22:00 +14°C° 0 mm 2 mps 654 mmHg 20%
23:00 +13°C° 0 mm 2 mps 654 mmHg 22%

Day after tomorrow, 16 July, Thursday

Time Temperature Precipitation Wind Pressure Humidity
00:00 +11°C° 0 mm 1 mps 654 mmHg 24%
01:00 +10°C° 0 mm 1 mps 654 mmHg 26%
02:00 +9°C° 0 mm 1 mps 654 mmHg 28%
03:00 +9°C° 0 mm 1 mps 653 mmHg 29%
04:00 +8°C° 0 mm 1 mps 653 mmHg 31%
05:00 +8°C° 0 mm 1 mps 654 mmHg 31%
06:00 +8°C° 0 mm 1 mps 654 mmHg 31%
07:00 +8°C° 0 mm 1 mps 655 mmHg 31%
08:00 +12°C° 0 mm 2 mps 656 mmHg 25%
09:00 +17°C° 0 mm 3 mps 657 mmHg 19%
10:00 +21°C° 0 mm 4 mps 658 mmHg 12%
11:00 +25°C° 0 mm 4 mps 658 mmHg 11%
12:00 +27°C° 0 mm 4 mps 657 mmHg 11%
13:00 +29°C° 0 mm 4 mps 657 mmHg 10%
14:00 +29°C° 0 mm 4 mps 657 mmHg 10%
15:00 +29°C° 0 mm 3 mps 656 mmHg 10%
16:00 +29°C° 0 mm 3 mps 656 mmHg 11%
17:00 +26°C° 0 mm 3 mps 656 mmHg 15%
18:00 +22°C° 0 mm 3 mps 655 mmHg 19%
19:00 +18°C° 0 mm 2 mps 655 mmHg 22%
20:00 +17°C° 0 mm 2 mps 655 mmHg 25%
21:00 +16°C° 0 mm 2 mps 655 mmHg 27%
22:00 +15°C° 0 mm 2 mps 655 mmHg 29%
23:00 +14°C° 0 mm 2 mps 655 mmHg 32%

17 July, Friday

Time Temperature Precipitation Wind Pressure Humidity
00:00 +13°C° 0 mm 2 mps 655 mmHg 35%
01:00 +12°C° 0 mm 2 mps 654 mmHg 38%
02:00 +11°C° 0 mm 1 mps 654 mmHg 42%
03:00 +10°C° 0 mm 1 mps 654 mmHg 46%
04:00 +9°C° 0 mm 1 mps 653 mmHg 50%
05:00 +9°C° 0 mm 1 mps 654 mmHg 51%
06:00 +9°C° 0 mm 1 mps 654 mmHg 53%
07:00 +9°C° 0 mm 1 mps 655 mmHg 54%
08:00 +13°C° 0 mm 2 mps 656 mmHg 46%
09:00 +17°C° 0 mm 3 mps 657 mmHg 37%
10:00 +21°C° 0 mm 4 mps 658 mmHg 29%
11:00 +23°C° 0 mm 4 mps 657 mmHg 25%
12:00 +26°C° 0 mm 4 mps 657 mmHg 21%
13:00 +28°C° 0 mm 3 mps 657 mmHg 18%
14:00 +28°C° 0 mm 3 mps 656 mmHg 16%
15:00 +28°C° 0 mm 3 mps 656 mmHg 15%
16:00 +28°C° 0 mm 3 mps 655 mmHg 14%
17:00 +25°C° 0 mm 3 mps 655 mmHg 18%
18:00 +20°C° 0 mm 2 mps 655 mmHg 22%
19:00 +17°C° 0 mm 2 mps 654 mmHg 26%
20:00 +16°C° 0 mm 2 mps 654 mmHg 29%
21:00 +15°C° 0 mm 2 mps 654 mmHg 32%
22:00 +13°C° 0 mm 2 mps 655 mmHg 35%
23:00 +12°C° 0 mm 2 mps 654 mmHg 38%

18 July, Saturday

Time Temperature Precipitation Wind Pressure Humidity
00:00 +12°C° 0 mm 2 mps 654 mmHg 40%
01:00 +10°C° 0 mm 2 mps 654 mmHg 43%
02:00 +9°C° 0 mm 2 mps 653 mmHg 46%
03:00 +9°C° 0 mm 1 mps 653 mmHg 50%
04:00 +8°C° 0 mm 1 mps 653 mmHg 54%
05:00 +8°C° 0 mm 1 mps 653 mmHg 55%
06:00 +7°C° 0 mm 1 mps 653 mmHg 56%
07:00 +7°C° 0 mm 1 mps 654 mmHg 56%
08:00 +11°C° 0 mm 3 mps 655 mmHg 46%
09:00 +15°C° 0 mm 4 mps 656 mmHg 35%
10:00 +20°C° 0 mm 5 mps 657 mmHg 24%
11:00 +22°C° 0 mm 4 mps 656 mmHg 21%
12:00 +25°C° 0 mm 4 mps 656 mmHg 17%
13:00 +27°C° 0 mm 3 mps 656 mmHg 14%
14:00 +28°C° 0 mm 3 mps 655 mmHg 13%
15:00 +28°C° 0 mm 3 mps 655 mmHg 13%
16:00 +28°C° 0 mm 3 mps 654 mmHg 12%
17:00 +25°C° 0 mm 2 mps 654 mmHg 17%
18:00 +20°C° 0 mm 2 mps 654 mmHg 21%
19:00 +17°C° 0 mm 2 mps 654 mmHg 25%
20:00 +16°C° 0 mm 2 mps 654 mmHg 29%
21:00 +14°C° 0 mm 2 mps 654 mmHg 32%
22:00 +13°C° 0 mm 2 mps 654 mmHg 35%
23:00 +12°C° 0 mm 2 mps 653 mmHg 39%

19 July, Sunday

Time Temperature Precipitation Wind Pressure Humidity
00:00 +11°C° 0 mm 1 mps 653 mmHg 42%
01:00 +10°C° 0 mm 1 mps 652 mmHg 46%
02:00 +9°C° 0 mm 1 mps 652 mmHg 50%
03:00 +8°C° 0 mm 1 mps 652 mmHg 53%
04:00 +7°C° 0 mm 1 mps 652 mmHg 56%
05:00 +7°C° 0 mm 1 mps 652 mmHg 57%
06:00 +7°C° 0 mm 1 mps 653 mmHg 58%
07:00 +7°C° 0 mm 1 mps 653 mmHg 58%
08:00 +12°C° 0 mm 2 mps 654 mmHg 48%
09:00 +16°C° 0 mm 3 mps 655 mmHg 38%
10:00 +20°C° 0 mm 4 mps 656 mmHg 27%
11:00 +24°C° 0 mm 3 mps 656 mmHg 23%
12:00 +26°C° 0 mm 3 mps 656 mmHg 18%
13:00 +29°C° 0 mm 2 mps 655 mmHg 14%
14:00 +29°C° 0 mm 2 mps 655 mmHg 13%
15:00 +29°C° 0 mm 1 mps 655 mmHg 12%
16:00 +29°C° 0 mm 1 mps 654 mmHg 11%
17:00 +25°C° 0 mm 1 mps 654 mmHg 15%
18:00 +22°C° 0 mm 1 mps 653 mmHg 19%
19:00 +18°C° 0 mm 1 mps 653 mmHg 23%
20:00 +16°C° 0 mm 1 mps 653 mmHg 26%
21:00 +15°C° 0 mm 1 mps 653 mmHg 29%
22:00 +13°C° 0 mm 1 mps 653 mmHg 32%
23:00 +12°C° 0 mm 1 mps 653 mmHg 35%
Show more